Location: NJAA Observatory
(40.6819°N, 74.8979°W)
Time: 16:48:08
(UTC-04:00)

Daily predictions for brighter satellites

Satellite Brightness Start Highest point End
(mag) Time Altitude Azimuth Time Altitude Azimuth Time Altitude Azimuth
Cosmos 1933 4.5 20:46:24 10° NNW 20:50:16 47° W 20:54:06 10° SSW
Cosmos 2082 Rocket 4.5 20:47:37 10° NW 20:51:58 23° W 20:56:19 10° SSW
Tsikada Rocket 4.3 20:45:51 10° SSW 20:52:03 76° W 20:58:14 10° N
Cosmos 1939 Rocket 3.1 20:48:38 10° SSE 20:52:41 57° ENE 20:56:44 10° N
Helios 1A 3.5 20:49:57 10° SE 20:53:55 44° ENE 20:57:57 10° N
Cosmos 2221 Rocket 4.2 20:51:15 10° N 20:55:24 38° ENE 20:59:33 10° SE
Cosmos 1825 3.3 20:54:37 10° SE 20:57:43 25° E 21:00:51 10° NE
SJ-11-01 4.3 20:58:17 10° SSE 21:02:59 73° ENE 21:07:41 10° N
Cosmos 1125 Rocket 3.8 20:58:04 10° S 21:03:05 47° ESE 21:08:05 10° NNE
Meteor 2-3 Rocket 3.9 20:57:22 10° S 21:03:05 84° W 21:08:46 10° N
Cosmos 1634 Rocket 4.1 20:58:54 10° N 21:05:13 72° E 21:11:31 10° SSE
Cosmos 2344 3.9 21:03:48 10° S 21:10:53 41° ESE 21:18:23 10° NE
USA 186 3.6 21:09:46 10° SSW 21:12:09 27° W 21:14:44 10° NW
Cosmos 1943 Rocket 2.2 21:09:11 10° S 21:14:38 57° ESE 21:20:04 10° NNE
Cosmos 1782 3.1 21:11:41 10° N 21:15:35 49° E 21:19:11 11° SSE
Cosmos 1892 4.3 21:16:21 10° SSW 21:19:56 37° WNW 21:23:31 10° N
deb Kosmos-1763 4.5 21:18:05 10° N 21:21:47 49° ENE 21:24:31 16° SE
Cosmos 158 Rocket 3.9 21:18:54 10° NNW 21:23:45 61° ENE 21:27:45 15° SSE
Resurs 01 Rocket 3.9 21:23:53 10° SSW 21:27:26 24° W 21:31:02 10° NW
Okean 1-7 3.0 21:24:01 10° N 21:28:27 87° E 21:32:50 10° S
DELTA 2 R/B(2) 2.7 21:28:16 10° W 21:30:02 65° S 21:30:23 43° ESE
SAR-Lupe-4 3.5 21:27:23 15° SSE 21:30:18 71° ENE 21:33:53 10° N
Cosmos 1340 3.0 21:28:19 10° N 21:32:00 48° ENE 21:34:23 20° SE
NOAA 11 4.2 21:29:43 13° SSE 21:34:35 67° ENE 21:40:03 10° N
Cosmos 2263 4.4 21:30:43 10° SSW 21:36:27 76° WNW 21:42:14 10° NNE
Cosmos 2279 Rocket 4.0 21:30:21 10° N 21:36:37 74° E 21:42:29 12° SSE
Cosmos 1862 3.7 21:33:56 16° SSE 21:36:45 42° E 21:40:31 10° NNE
Meteor 1-29 3.2 21:37:25 10° N 21:40:55 72° WNW 21:44:21 10° SSW
YAOGAN 6 3.4 21:37:39 10° S 21:41:15 50° W 21:44:50 10° NNW
H-2A R/B 2.9 21:40:00 19° ESE 21:43:09 35° ENE 21:47:57 10° N
CZ-4B DEB 3.2 21:41:29 15° S 21:43:42 51° W 21:46:34 10° NNW
Terra 3.7 21:42:01 13° E 21:43:58 16° ENE 21:46:51 10° NNE
Cosmos 2369 Rocket 3.3 21:38:34 10° SW 21:44:00 47° WNW 21:49:31 10° NNE
ISS -1.2 21:42:05 10° WNW 21:44:44 22° NNW 21:47:23 10° NNE
Tiangong 2 3.6 21:44:32 10° WSW 21:46:00 12° SW 21:47:06 11° SSW
ERS-1 Rocket 2.9 21:43:43 16° SSE 21:47:49 87° ENE 21:52:53 10° NNW
Helios 1B rocket 3.3 21:44:11 10° N 21:48:10 50° WNW 21:52:08 10° SSW
SAR-Lupe-1 4.2 21:49:32 20° S 21:51:53 71° W 21:55:27 10° NNW
Cosmos 1606 3.2 21:50:04 10° NNW 21:53:47 57° W 21:56:41 16° S
GPS 2-04 Rocket1 3.7 21:51:45 10° WSW 21:54:52 25° SSW 21:55:27 24° S
Cosmos 1833 4.2 21:50:06 10° NNW 21:55:55 81° ENE 21:59:28 24° SSE
Lacrosse 4 Rocket 1.5 21:52:55 10° NNW 21:57:26 84° WSW 21:59:44 28° SSE
MetOp-B 4.1 21:53:50 19° SSE 21:57:42 86° ENE 22:03:05 10° NNW
USA 215 3.5 21:53:28 19° ESE 21:58:13 64° NE 22:04:42 10° NW
H-2A ROCKET BODY 3.8 21:55:47 10° SW 21:58:41 18° S 21:58:45 18° SSE
Cosmos 1733 Rocket 3.0 21:56:23 23° SSE 21:58:54 60° E 22:03:10 10° NNE
ATLAS 5 CENTAUR R/B 2.5 21:54:24 10° NW 22:00:27 77° WSW 22:04:39 24° SSE
Cosmos 2297 Rocket 4.4 22:01:09 10° NNE 22:03:06 12° NE 22:05:04 10° ENE
Cosmos 1048 Rocket 4.4 21:58:42 10° NNW 22:03:55 59° WSW 22:07:37 19° S
Milstar 3 3.9 21:53:21 10° WSW 22:03:57 36° S 22:07:43 25° SE
ATLAS CENTAUR R/B 2.1 22:05:12 31° E 22:05:12 31° E 22:08:12 10° NE
Cosmos 1656 Rocket 3.5 22:03:43 10° SSW 22:09:07 72° ESE 22:14:39 10° NNE
Cosmos 1408 4.3 22:05:46 10° SW 22:09:09 33° WNW 22:12:36 10° NNW
Cosmos 1437 3.7 22:06:19 10° N 22:09:07 31° ENE 22:09:07 31° ENE
SPOT 5 3.1 22:06:19 26° SSE 22:09:22 78° ENE 22:14:40 10° N
ARGOS 3.1 22:10:08 24° S 22:13:27 83° WSW 22:18:50 10° NNW
Alouette 2 Rocket 4.4 22:06:43 10° S 22:14:35 80° E 22:19:36 10° NNE
Lacrosse 5 rocket 4.1 22:13:37 10° WNW 22:16:07 17° NNW 22:18:39 10° NNE
Sich 1 Rocket 4.1 22:18:37 37° ESE 22:19:05 38° E 22:23:11 10° NNE
CENTAUR R/B 3.6 22:14:00 10° WSW 22:19:50 46° NW 22:26:30 10° NNE
Cosmos 1346 4.4 22:21:13 10° N 22:22:51 28° NNE 22:22:51 28° NNE
Cosmos 1975 Rocket 4.4 22:21:34 10° NNE 22:25:16 25° ENE 22:25:33 25° E
Meteor 1-27 Rocket 4.2 22:22:22 10° NNW 22:28:00 59° W 22:31:31 22° SSW
Cosmos 2026 Rocket 4.4 22:30:32 36° SE 22:32:19 44° E 22:38:12 10° NNE
Cosmos 2251 Rocket 3.5 22:27:43 10° NNW 22:32:57 68° ENE 22:34:28 45° SE
CARTOSAT-1 4.0 22:33:13 43° E 22:33:44 45° ENE 22:37:53 10° N
SL-08 RB Rocket 4.1 22:32:59 33° SSW 22:34:57 59° W 22:39:34 10° NNW
Cosmos 1378 Rocket 3.6 22:32:03 10° N 22:36:28 59° E 22:37:00 54° ESE
Cosmos 1674 Rocket 3.6 22:32:29 10° NNW 22:36:48 73° W 22:37:55 47° SSW
SPOT 1/Viking Rocket 3.7 22:39:33 38° S 22:41:33 71° WSW 22:46:47 10° NNW
DMSP B5D2-2 3.9 22:36:37 10° NNE 22:41:51 77° ESE 22:43:39 42° S
Okean 3 3.2 22:39:22 10° N 22:43:34 80° E 22:43:55 72° SE
IGS 5A 3.6 22:43:48 54° E 22:43:56 55° ENE 22:48:00 10° N
H-2A R/B 2.7 22:50:34 39° ENE 22:50:34 39° ENE 22:54:16 10° N
Meteor 1-25 Rocket 4.4 22:50:55 49° SE 22:52:03 58° E 22:57:46 10° NNE
Cosmos 2227 Rocket 3.3 22:48:51 10° N 22:53:52 32° ENE 22:55:17 28° E
Cosmos 1092 Rocket 4.2 22:56:29 26° SSW 23:00:01 65° W 23:06:08 10° N
Cosmos 2219 3.2 22:57:01 10° NNW 23:02:48 81° WSW 23:04:04 56° S
Landsat 7 4.2 23:05:14 49° SW 23:06:03 56° W 23:10:46 10° NNW
GEOS 3 Rocket 3.7 23:05:52 55° ESE 23:06:48 68° NE 23:12:01 10° NNW
Cosmos 1812 3.1 23:04:30 10° N 23:07:47 62° N 23:07:47 62° N
Cosmos 1627 Rocket 4.5 23:07:55 42° SSW 23:10:12 83° W 23:16:35 10° N
Cosmos 1908 Rocket 4.4 23:12:37 39° WSW 23:13:37 46° WNW 23:17:55 10° N
Meteor 1-14 Rocket 4.4 23:13:13 41° SSW 23:15:17 71° W 23:21:06 10° N
Cosmos 1553 Rocket 4.1 23:09:30 10° N 23:15:47 61° E 23:16:48 54° ESE
Cosmos 2369 4.3 23:20:17 41° E 23:20:17 41° E 23:24:52 10° NE
Cosmos 1867 4.3 23:15:28 10° NW 23:20:32 41° WSW 23:21:08 40° SW
Terra 2.1 23:20:55 55° WSW 23:21:14 57° W 23:25:56 10° NNW
ISS -0.6 23:20:44 10° NNW 23:22:08 12° N 23:23:32 10° NNE
H-2A R/B 3.6 23:20:37 24° SW 23:22:33 29° W 23:27:10 10° NW
CZ-4B R/B 3.7 23:19:01 10° NNE 23:23:15 55° ENE 23:23:15 55° ENE
Okean 2 Rocket 3.3 23:29:03 67° N 23:29:03 67° N 23:32:57 10° N
Cosmos 405 Rocket 3.9 23:27:24 10° NNW 23:29:59 38° NW 23:29:59 38° NW
Meteor 1-11 Rocket 4.4 23:33:20 44° E 23:33:20 44° E 23:38:41 10° NNE
APEX 4.3 23:29:33 10° NNW 23:32:37 42° N 23:32:37 42° N
Gbstr 26 Del rocket 3.8 23:31:33 10° NW 23:35:02 46° N 23:35:02 46° N
deb Chang Zheng 4 4.0 23:35:32 10° N 23:39:30 62° NW 23:39:30 62° NW
USA 215 4.0 23:40:49 36° SW 23:41:24 37° SW 23:47:24 10° WNW
CZ-4C R/B 4.3 23:43:49 50° N 23:43:49 50° N 23:46:53 10° N
Cosmos 1697 Rocket 3.8 23:45:10 30° ENE 23:45:10 30° ENE 23:48:40 10° NE
ATLAS CENTAUR R/B 3.5 23:41:20 14° W 23:43:41 23° NW 23:46:48 10° N
Cosmos 2266 Rocket 4.1 23:44:11 57° E 23:44:14 57° E 23:50:13 10° NNE
CZ-2C R/B 3.7 23:45:38 43° ENE 23:45:38 43° ENE 23:49:56 10° N
Cosmos 2297 Rocket 2.2 23:42:36 10° NNW 23:48:16 68° ENE 23:48:21 68° ENE
BREEZE-M DEB (TANK) 4.3 23:31:11 10° WNW 23:49:40 79° SSW 23:50:53 62° SE
ARGOS Delta rocket 4.3 23:50:55 10° N 23:54:43 51° NW 23:54:43 51° NW
